Weather History for Palma de Mallorca, Spain

Change the Weather History Date:

Monday, October 18, 2010

  Actual Average Record
Temperature  
Mean Temperature 57 °F -  
Max Temperature 66 °F 68 °F 89 °F (2014)
Min Temperature 48 °F 50 °F 48 °F (2010)
Degree Days  
Heating Degree Days 8    
Growing Degree Days 7 (Base 50)    
Moisture  
Dew Point 48 °F    
Average Humidity 74    
Maximum Humidity 100    
Minimum Humidity 45    
Precipitation  
Precipitation 0.00 in 0.07 in - ()
Sea Level Pressure  
Sea Level Pressure 30.01 in    
Wind  
Wind Speed 4 mph ()    
Max Wind Speed 14 mph    
Max Gust Speed 25 mph    
Visibility 6.7 miles    
Events Rain , Thunderstorm    
Averages and records for this station are not official NWS values.
T = Trace of Precipitation, MM = Missing Value Source: Averaged Metar Reports

Daily Weather History Graph

Daily Weather History Graph

Search for Another Location

Airport:

Trip Planner

Search our weather history database for the weather conditions in past years. The results will help you decide how hot, cold, wet, or windy it might be!

Date:

Astronomy

Oct. 18, 2010 Rise Set
Actual Time 8:01 AM CEST 7:05 PM CEST
Civil Twilight 7:34 AM CEST 7:33 PM CEST
Nautical Twilight 7:03 AM CEST 8:04 PM CEST
Astronomical Twilight 6:32 AM CEST 8:35 PM CEST
Moon 4:43 PM CEST (10/18) 3:37 AM CEST (10/18)
Length of Visible Light 11h 58m
Length of Day
11h 04m
Waxing Gibbous, 81% of the Moon is Illuminated
Oct 18
Waxing Gibbous
Oct 23
Full
Oct 30
Last Quarter
Nov 6
New
Nov 13
First Quarter

Hourly Weather History & Observations

Time (CEST) Temp. Dew Point Humidity Pressure Visibility Wind Dir Wind Speed Gust Speed Precip Events Conditions
12:00 AM 53.6 °F 50.0 °F 88% 30.01 in 5.6 mi NE 5.8 mph - N/A Rain , Thunderstorm Rain
12:30 AM 51.8 °F 50.0 °F 94% 30.01 in 6.2 mi Variable 1.2 mph - N/A Rain Rain
1:00 AM 51.8 °F 50.0 °F 94% 30.01 in 6.2 mi Variable 2.3 mph - N/A   Scattered Clouds
1:30 AM 51.8 °F 48.2 °F 88% 30.01 in 6.2 mi North 3.5 mph - N/A   Scattered Clouds
2:00 AM 51 °F 49 °F 92% 30.01 in 9 mi Calm Calm - -   Partly Cloudy
2:00 AM 51.8 °F 50.0 °F 94% 30.01 in 6.2 mi Calm Calm - N/A   Scattered Clouds
2:30 AM 50.0 °F 48.2 °F 94% 30.01 in 6.2 mi WNW 2.3 mph - N/A   Scattered Clouds
3:00 AM 50.0 °F 48.2 °F 94% 30.01 in 6.2 mi Variable 2.3 mph - N/A   Scattered Clouds
3:30 AM 48.2 °F 48.2 °F 100% 29.98 in 6.2 mi NE 4.6 mph - N/A   Scattered Clouds
4:00 AM 48.2 °F 48.2 °F 100% 29.98 in 6.2 mi Calm Calm - N/A   Scattered Clouds
4:30 AM 48.2 °F 48.2 °F 100% 29.98 in 6.2 mi Variable 1.2 mph - N/A   Scattered Clouds
5:00 AM 48.2 °F 48.2 °F 100% 29.98 in 6.2 mi Calm Calm - N/A Rain Light Rain
5:30 AM 50.0 °F 48.2 °F 94% 29.98 in 6.2 mi ESE 1.2 mph - N/A   Scattered Clouds
6:00 AM 50.0 °F 48.2 °F 94% 29.98 in 6.2 mi NE 4.6 mph - N/A   Scattered Clouds
6:30 AM 50.0 °F 48.2 °F 94% 29.98 in 6.2 mi SE 3.5 mph - N/A   Scattered Clouds
7:00 AM 50.0 °F 48.2 °F 94% 29.98 in 6.2 mi Variable 2.3 mph - N/A   Scattered Clouds
7:30 AM 48.2 °F 46.4 °F 93% 29.98 in 6.2 mi Variable 2.3 mph - N/A   Partly Cloudy
8:00 AM 49 °F 48 °F 93% 29.99 in 16 mi East 4.6 mph - -   Partly Cloudy
8:00 AM 50.0 °F 48.2 °F 94% 29.98 in 6.2 mi ENE 5.8 mph - N/A   Partly Cloudy
8:30 AM 48.2 °F 46.4 °F 93% 29.98 in 6.2 mi Variable 2.3 mph - N/A   Partly Cloudy
9:00 AM 50.0 °F 50.0 °F 100% 30.01 in 6.2 mi ENE 1.2 mph - N/A   Partly Cloudy
9:30 AM 53.6 °F 50.0 °F 88% 30.01 in 6.2 mi Variable 2.3 mph - N/A   Partly Cloudy
10:00 AM 59.0 °F 50.0 °F 72% 30.01 in 6.2 mi NNE 1.2 mph - N/A   Partly Cloudy
10:30 AM 60.8 °F 46.4 °F 59% 30.01 in 6.2 mi NNE 1.2 mph - N/A   Partly Cloudy
11:00 AM 62.6 °F 46.4 °F 55% 30.01 in 6.2 mi NNE 2.3 mph - N/A   Partly Cloudy
11:30 AM 62.6 °F 46.4 °F 55% 30.01 in 6.2 mi NNW 8.1 mph 21.9 mph N/A   Partly Cloudy
12:00 PM 62.6 °F 46.4 °F 55% 30.04 in 6.2 mi NNW 5.8 mph - N/A   Scattered Clouds
12:07 PM 60.8 °F 46.4 °F 59% 30.04 in 6.2 mi NNW 10.4 mph 21.9 mph N/A   Scattered Clouds
12:30 PM 62.6 °F 46.4 °F 55% 30.01 in 6.2 mi NW 9.2 mph - N/A   Scattered Clouds
12:32 PM 62.6 °F 46.4 °F 55% 30.01 in 6.2 mi NNW 9.2 mph 24.2 mph N/A   Scattered Clouds
1:00 PM 62.6 °F 48.2 °F 59% 30.01 in 6.2 mi NNW 12.7 mph - N/A   Scattered Clouds
1:30 PM 64.4 °F 48.2 °F 56% 30.01 in 6.2 mi NNW 13.8 mph - N/A   Scattered Clouds
1:39 PM 64.4 °F 48.2 °F 56% 30.01 in 6.2 mi NW 11.5 mph - N/A   Scattered Clouds
2:00 PM 64 °F 48 °F 45% 30.01 in 19 mi NNW 10.4 mph - -   Partly Cloudy
2:00 PM 64.4 °F 48.2 °F 56% 30.01 in 6.2 mi NNW 10.4 mph - N/A   Scattered Clouds
2:30 PM 62.6 °F 46.4 °F 55% 30.01 in 6.2 mi NW 10.4 mph 21.9 mph N/A   Scattered Clouds
2:45 PM 62.6 °F 48.2 °F 59% 30.01 in 6.2 mi NW 10.4 mph 21.9 mph N/A   Scattered Clouds
3:00 PM 64.4 °F 46.4 °F 52% 30.01 in 6.2 mi NW 12.7 mph - N/A   Scattered Clouds
3:13 PM 64.4 °F 48.2 °F 56% 29.98 in 6.2 mi WNW 12.7 mph 24.2 mph N/A   Scattered Clouds
3:30 PM 64.4 °F 46.4 °F 52% 29.98 in 6.2 mi NW 11.5 mph 25.3 mph N/A   Scattered Clouds
4:00 PM 64.4 °F 46.4 °F 52% 29.98 in 6.2 mi NW 10.4 mph 21.9 mph N/A   Scattered Clouds
4:30 PM 64.4 °F 44.6 °F 49% 29.98 in 6.2 mi ENE 6.9 mph - N/A   Scattered Clouds
5:00 PM 64.4 °F 48.2 °F 56% 29.98 in 6.2 mi East 5.8 mph - N/A   Partly Cloudy
5:30 PM 62.6 °F 48.2 °F 59% 29.98 in 6.2 mi East 8.1 mph - N/A   Partly Cloudy
6:00 PM 62.6 °F 48.2 °F 59% 30.01 in 6.2 mi East 4.6 mph - N/A   Partly Cloudy
6:30 PM 62.6 °F 44.6 °F 52% 30.01 in 6.2 mi North 3.5 mph - N/A   Partly Cloudy
7:00 PM 60.8 °F 46.4 °F 59% 30.01 in 6.2 mi NE 4.6 mph - N/A   Partly Cloudy
7:30 PM 59.0 °F 48.2 °F 67% 30.01 in 6.2 mi ENE 5.8 mph - N/A   Partly Cloudy
8:00 PM 59 °F 48 °F 57% 30.04 in 12 mi East 1.2 mph - -   Scattered Clouds
8:00 PM 59.0 °F 48.2 °F 67% 30.04 in 6.2 mi ENE 3.5 mph - N/A   Partly Cloudy
8:30 PM 57.2 °F 48.2 °F 72% 30.04 in 6.2 mi East 2.3 mph - N/A   Partly Cloudy
9:00 PM 55.4 °F 48.2 °F 77% 30.04 in 6.2 mi Variable 1.2 mph - N/A   Partly Cloudy
9:30 PM 55.4 °F 46.4 °F 72% 30.04 in 6.2 mi Variable 1.2 mph - N/A   Partly Cloudy
10:00 PM 53.6 °F 46.4 °F 77% 30.04 in 6.2 mi Calm Calm - N/A   Scattered Clouds
10:30 PM 51.8 °F 46.4 °F 82% 30.04 in 6.2 mi Variable 1.2 mph - N/A   Partly Cloudy
11:00 PM 50.0 °F 46.4 °F 87% 30.06 in 6.2 mi Variable 2.3 mph - N/A   Partly Cloudy
11:30 PM 50.0 °F 46.4 °F 87% 30.04 in 6.2 mi Variable 2.3 mph - N/A   Partly Cloudy